[[{"header":{"parameterUnit":"m.s-1","parameterCategory":1,"la1":30.2991,"la2":30.254,"lo1":-89.0895,"lo2":-89.0444,"dy":0.0017,"dx":0.0017,"nx":28,"ny":28,"refTime":"2024-02-04T03:00:00:Z","depth":0,"parameterNumber":2,"parameterNumberName":"U-component_of_WINDS"},"data":[0,0,0,0,0,0,0,0,0,0,0,0,0,0,0,0,0,0,0,0,0,0,0,0,0,0,0,0,0,0,0,0,0,0,0,0,0,0,0,0,0,0,0,0,0,0,0,0,0,0,0,0,0,0,0,0,0,0,3.5157,3.5158,0,3.52,3.5201,3.5201,3.5091,3.5087,3.5084,3.5081,3.5128,3.5133,3.5137,0,0,0,0,0,0,0,0,0,0,0,0,0,3.4986,3.4989,3.5157,3.5158,3.5158,3.52,3.5201,3.5201,3.5092,3.5087,3.5083,3.5079,3.5127,3.5132,3.5138,0,0,0,0,0,0,0,0,0,0,0,0,0,3.5048,3.499,3.5157,3.5108,3.5104,3.52,3.5201,3.5202,3.5092,3.5087,3.5082,3.5077,3.5125,3.5132,3.5138,3.5284,0,0,3.5159,3.5162,0,0,0,0,0,0,0,0,3.5044,3.5054,3.5115,3.5112,3.5108,3.5135,3.5158,3.5229,3.5094,3.5097,3.5081,3.5075,3.5135,3.5141,3.516,3.5286,3.5288,3.516,3.5164,3.5167,3.5168,0,0,0,0,0,0,0,3.504,3.5052,3.5174,3.5116,3.5112,3.5086,3.5089,3.5171,3.5145,3.5096,3.5089,3.5095,3.5132,3.5154,3.516,3.5289,3.5159,3.5165,3.517,3.5172,3.5541,3.5546,0,0,0,0,0,0,3.5041,3.5049,3.5173,3.5176,3.5062,3.5094,3.5097,3.5131,3.5144,3.514,3.5099,3.509,3.5145,3.5153,3.5162,3.5335,3.5166,3.5173,3.5177,3.5535,3.5542,3.5548,0,0,0,0,0,0,3.5038,3.5054,3.5171,3.511,3.5123,3.5102,3.5142,3.5135,3.5157,3.5146,3.5141,3.5126,3.5141,3.5152,3.5255,3.5335,3.5176,3.5182,3.5528,3.5537,3.5545,3.5682,0,0,0,0,0,0,3.5034,3.5053,3.5106,3.5112,3.5127,3.5262,3.5146,3.514,3.5168,3.5156,3.517,3.5167,3.5138,3.5246,3.5262,3.5341,3.5187,3.5521,3.5532,3.5542,3.567,3.5694,3.5715,0,0,0,0,0,3.5028,3.5143,3.511,3.5125,3.5193,3.5267,3.5276,3.5239,3.5175,3.523,3.5224,3.5166,3.5324,3.5257,3.5274,3.5357,3.5516,3.5529,3.5542,3.566,3.5689,3.5714,0,0,0,0,0,0,3.5148,3.5143,3.5106,3.5226,3.5248,3.5248,3.5316,3.5271,3.5312,3.5298,3.5252,3.5257,3.5369,3.5373,3.5299,3.5501,3.5409,3.5426,3.5493,3.5521,3.5543,3.5539,3.5193,0,0,0,0,0,3.5188,3.5247,3.524,3.5347,3.536,3.5337,3.5368,3.5338,3.5359,3.5368,3.5368,3.5393,3.5448,3.5485,3.5534,3.5671,3.5673,3.5737,3.5759,3.5777,3.5792,3.5868,3.5896,3.5591,3.5591,3.559,0,0,3.5272,3.5277,3.5317,3.5372,3.5385,3.5449,3.5345,3.5417,3.5464,3.5379,3.5476,3.5478,3.5502,3.5623,3.5676,3.563,3.5878,3.5794,3.5808,3.5814,3.5884,3.5913,3.5939,3.5599,3.5598,3.5596,0,0,3.5458,3.5467,3.5558,3.5574,3.5596,3.558,3.5603,3.5611,3.5609,3.5706,3.5644,3.5701,3.5796,3.5816,3.5839,3.6038,3.5988,3.6056,3.6172,3.6246,3.627,3.6291,3.6363,3.6389,3.6071,3.6071,3.6072,0,3.556,3.5652,3.5611,3.5688,3.5715,3.5641,3.5734,3.5752,3.579,3.5811,3.5759,3.5879,3.589,3.6016,3.6065,3.6085,3.6111,3.6053,3.6269,3.629,3.6309,3.6378,3.6405,3.6079,3.6079,3.6078,3.6077,0,3.5777,3.5843,3.5915,3.5953,3.5988,3.6073,3.6047,3.6088,3.6057,3.6047,3.6149,3.616,3.6212,3.624,3.6209,3.6363,3.6334,3.6277,3.6183,3.6347,3.6411,3.6437,3.6091,3.6088,3.6086,3.6084,0,0,3.6037,3.6054,3.6081,3.6098,3.6119,3.617,3.6254,3.6304,3.6341,3.6371,3.6441,3.6525,3.6473,3.6499,3.6471,3.6536,3.6695,3.6471,3.6471,3.6513,3.6868,3.6911,3.6941,3.6663,3.6668,3.6671,3.6866,0,3.6221,3.6362,3.633,3.647,3.6532,3.6465,3.6538,3.656,3.6555,3.6608,3.6602,3.6663,3.6589,3.6605,3.6666,3.6663,3.6766,3.6648,3.6729,3.6732,3.6725,3.6974,3.7019,3.7202,3.689,3.6895,3.6898,0,3.6454,3.6493,3.664,3.6654,3.6678,3.6744,3.679,3.6841,3.6866,3.6858,3.6889,3.6849,3.6935,3.6842,3.696,3.6881,3.6912,3.6916,3.6923,3.6928,3.6824,3.6988,3.7259,3.7287,3.6936,3.6933,3.693,0,3.663,3.672,3.682,3.6837,3.6855,3.6904,3.6914,3.6933,3.6967,3.7008,3.7029,3.708,3.7108,3.7149,3.7125,3.7059,3.7248,3.7152,3.7245,3.7246,3.7287,3.7285,3.7568,3.7308,3.7307,3.7307,3.7306,0,3.6839,3.6932,3.6899,3.6961,3.7064,3.7027,3.7131,3.7133,3.7152,3.7215,3.7161,3.7221,3.7185,3.7244,3.7226,3.7328,3.7341,3.7338,3.7332,3.7342,3.7343,3.7362,3.7349,3.7314,3.7313,3.7311,3.731,0,3.7053,3.7034,3.7139,3.7149,3.7154,3.7229,3.7238,3.7297,3.7289,3.7369,3.7386,3.7374,3.744,3.742,3.7492,3.748,3.7609,3.7587,3.76,3.7595,3.7689,3.7681,3.7994,3.8034,3.7748,3.7751,3.7753,0,3.7187,3.7257,3.7275,3.7313,3.7327,3.7388,3.7423,3.7391,3.7429,3.7465,3.752,3.7582,3.7629,3.7738,3.7737,3.7792,3.7771,3.7877,3.7779,3.7788,3.7774,3.777,3.7777,3.7897,3.79,3.7903,3.7905,0,3.7428,3.7416,3.7467,3.7517,3.756,3.7598,3.763,3.7665,3.7636,3.7682,3.7749,3.7786,3.786,3.7923,3.7974,3.7986,3.7942,3.7936,3.7961,3.7972,3.7977,3.7977,3.7654,3.7929,3.7926,3.7925,3.7923,3.7922,3.7606,3.7666,3.7689,3.7749,3.7771,3.7803,3.786,3.7859,3.7914,3.7971,3.795,3.8028,3.8054,3.8119,3.8138,3.8199,3.8159,3.8194,3.8203,3.8212,3.8224,3.7968,3.8209,3.8208,3.8207,3.8207,3.8206,0,3.7845,3.7857,3.7912,3.7961,3.8009,3.7963,3.7998,3.8042,3.8111,3.8139,3.8187,3.8266,3.8327,3.8332,3.839,3.8439,3.842,3.8455,3.8451,3.8455,3.8257,3.823,3.8469,3.8469,3.8469,3.8469,3.8469,3.8469,3.7974,3.8074,3.8066,3.8178,3.8189,3.8264,3.8289,3.832,3.8342,3.8433,3.8483,3.8486,3.8506,3.8566,3.8621,3.8621,3.8645,3.8688,3.8681,3.8495,3.8469,3.8444,3.8418,3.8694,3.8694,3.8874,3.8875,3.8877]},{"header":{"parameterUnit":"m.s-1","parameterCategory":1,"la1":30.2991,"la2":30.254,"lo1":-89.0895,"lo2":-89.0444,"dy":0.0017,"dx":0.0017,"nx":28,"ny":28,"refTime":"2024-02-04T03:00:00:Z","depth":0,"parameterNumber":3,"parameterNumberName":"V-component_of_WINDS"},"data":[0,0,0,0,0,0,0,0,0,0,0,0,0,0,0,0,0,0,0,0,0,0,0,0,0,0,0,0,0,0,0,0,0,0,0,0,0,0,0,0,0,0,0,0,0,0,0,0,0,0,0,0,0,0,0,0,0,0,0.5615,0.5616,0,0.5754,0.5755,0.5757,0.5759,0.5757,0.5755,0.5754,0.5896,0.5901,0.5907,0,0,0,0,0,0,0,0,0,0,0,0,0,0.5352,0.5357,0.5615,0.5616,0.5618,0.5753,0.5755,0.5757,0.5759,0.5757,0.5755,0.5753,0.5894,0.5901,0.5907,0,0,0,0,0,0,0,0,0,0,0,0,0,0.5476,0.5359,0.5614,0.5635,0.5639,0.5753,0.5755,0.5758,0.5759,0.5757,0.5754,0.5752,0.5892,0.59,0.5908,0.6011,0,0,0.5933,0.5937,0,0,0,0,0,0,0,0,0.5469,0.5486,0.5631,0.5634,0.5638,0.5736,0.5715,0.5843,0.576,0.5714,0.5753,0.575,0.5845,0.5857,0.5889,0.6018,0.6024,0.5934,0.5939,0.5942,0.5945,0,0,0,0,0,0,0,0.5461,0.548,0.567,0.5633,0.5637,0.5638,0.5653,0.5739,0.5792,0.5717,0.5718,0.5734,0.5847,0.5881,0.5892,0.6026,0.5934,0.5941,0.5946,0.5949,0.6246,0.6249,0,0,0,0,0,0,0.5448,0.5473,0.5665,0.5674,0.5545,0.5645,0.5662,0.5707,0.5791,0.5802,0.5736,0.5734,0.5868,0.5883,0.5897,0.6022,0.5942,0.595,0.5954,0.6243,0.6247,0.625,0,0,0,0,0,0,0.5442,0.5465,0.566,0.5574,0.5598,0.5652,0.5704,0.5711,0.5746,0.5806,0.5815,0.5762,0.5867,0.5886,0.5983,0.6027,0.5953,0.5961,0.6239,0.6244,0.6248,0.6273,0,0,0,0,0,0,0.5434,0.5463,0.5502,0.5574,0.5603,0.5742,0.5707,0.5716,0.576,0.5758,0.5832,0.5842,0.5866,0.597,0.5991,0.6037,0.5967,0.6236,0.6242,0.6247,0.6269,0.6278,0.6286,0,0,0,0,0,0.5425,0.5504,0.5504,0.5527,0.5653,0.5745,0.5761,0.5788,0.5763,0.5803,0.5842,0.5839,0.602,0.598,0.6003,0.6053,0.6233,0.624,0.6246,0.6265,0.6276,0.6286,0,0,0,0,0,0,0.5435,0.5513,0.5515,0.5619,0.5675,0.5745,0.5796,0.5799,0.5864,0.5859,0.589,0.5906,0.6003,0.6038,0.5993,0.6156,0.6123,0.6135,0.6129,0.6141,0.6149,0.6138,0.5974,0,0,0,0,0,0.5449,0.5517,0.5582,0.5668,0.5697,0.5742,0.5783,0.5798,0.5858,0.5882,0.5928,0.5986,0.6055,0.61,0.6168,0.6275,0.629,0.632,0.6329,0.6336,0.6345,0.6403,0.6416,0.6272,0.6272,0.6272,0,0,0.5479,0.5531,0.5572,0.5672,0.5717,0.5786,0.5762,0.5836,0.5888,0.5893,0.5987,0.6023,0.609,0.6192,0.6239,0.6224,0.6389,0.6344,0.6349,0.6355,0.6411,0.6425,0.6437,0.6277,0.6276,0.6275,0,0,0.5569,0.5616,0.5692,0.5738,0.5807,0.5837,0.5856,0.5926,0.595,0.6044,0.6049,0.6112,0.6232,0.6279,0.6319,0.6428,0.6428,0.645,0.6494,0.6551,0.6562,0.6572,0.661,0.6623,0.6459,0.6459,0.6459,0,0.5598,0.5703,0.5731,0.5806,0.5849,0.5858,0.5935,0.5979,0.6066,0.6096,0.6079,0.6229,0.6275,0.6387,0.6414,0.6447,0.6468,0.644,0.6558,0.6569,0.6579,0.6615,0.6629,0.6461,0.6461,0.6461,0.646,0,0.5734,0.5807,0.586,0.5944,0.5994,0.607,0.611,0.6157,0.6169,0.6201,0.6297,0.6353,0.6431,0.646,0.6472,0.6575,0.6563,0.6552,0.6518,0.6594,0.6628,0.6642,0.6464,0.6463,0.6463,0.6462,0,0,0.5831,0.5931,0.595,0.5988,0.6066,0.6123,0.62,0.6277,0.6316,0.6378,0.6442,0.6544,0.6533,0.6579,0.6597,0.6647,0.6728,0.6629,0.6631,0.6644,0.6843,0.6849,0.6865,0.673,0.6732,0.6735,0.6837,0,0.5928,0.6063,0.6091,0.6209,0.6276,0.6286,0.6353,0.6408,0.644,0.6502,0.6538,0.6609,0.6591,0.6618,0.6668,0.6708,0.6768,0.6701,0.6789,0.6791,0.6769,0.6883,0.689,0.6983,0.685,0.6853,0.6855,0,0.6058,0.6122,0.6246,0.6315,0.6344,0.6404,0.6476,0.6536,0.6599,0.6619,0.667,0.6683,0.6763,0.6728,0.6839,0.6792,0.683,0.6855,0.6859,0.6867,0.6826,0.6891,0.7014,0.7027,0.6876,0.6875,0.6873,0,0.6114,0.6232,0.6321,0.6354,0.6437,0.6479,0.6515,0.6576,0.6621,0.6685,0.6714,0.6787,0.6826,0.6882,0.6915,0.6886,0.7022,0.699,0.704,0.7039,0.7066,0.7063,0.7194,0.7094,0.7094,0.7094,0.7093,0,0.6217,0.6292,0.6347,0.6401,0.6486,0.6519,0.6601,0.6638,0.6692,0.6754,0.6768,0.6826,0.6866,0.693,0.6956,0.7043,0.7061,0.7079,0.7084,0.7076,0.7074,0.7099,0.7093,0.7098,0.7097,0.7096,0.7095,0,0.6293,0.6333,0.643,0.6502,0.6522,0.6581,0.6642,0.6696,0.6729,0.6807,0.6827,0.688,0.6955,0.6994,0.7088,0.7106,0.7203,0.7206,0.7181,0.7183,0.723,0.7224,0.738,0.7402,0.7289,0.729,0.7291,0,0.6355,0.6413,0.6491,0.6534,0.6571,0.664,0.6685,0.6721,0.6768,0.6844,0.6889,0.6965,0.7028,0.7148,0.7194,0.7266,0.727,0.732,0.7281,0.727,0.7268,0.7263,0.7269,0.7325,0.7327,0.7327,0.7328,0,0.646,0.6478,0.6543,0.6616,0.667,0.6729,0.6787,0.6821,0.6866,0.6918,0.6995,0.7044,0.7141,0.7216,0.7292,0.733,0.7336,0.7341,0.7356,0.7346,0.7329,0.7337,0.7197,0.7336,0.7335,0.7335,0.7334,0.7334,0.653,0.6581,0.6645,0.6717,0.6765,0.6819,0.6872,0.6913,0.6978,0.7059,0.7077,0.7159,0.7221,0.7324,0.7364,0.7428,0.7418,0.744,0.7445,0.7449,0.7451,0.7321,0.7443,0.7443,0.7442,0.7442,0.7442,0,0.6634,0.6675,0.6742,0.6823,0.688,0.6883,0.6948,0.6995,0.7067,0.7125,0.7186,0.7275,0.7349,0.7402,0.7476,0.7518,0.7523,0.7536,0.7532,0.754,0.7457,0.7435,0.7531,0.7531,0.7531,0.7531,0.7531,0.7531,0.6694,0.6782,0.6807,0.6918,0.696,0.704,0.7076,0.7127,0.7173,0.7272,0.7333,0.7367,0.7423,0.7502,0.757,0.7583,0.7609,0.7622,0.7636,0.7556,0.7546,0.7537,0.7517,0.7628,0.7628,0.7714,0.7714,0.7715]}]]